Location: Casteau
(50.5142°N, 4.0161°E)
Time: 18:38:58
(UTC+00:00)

Transit 2A - Pass Details

Date: 05 August 2021
Orbit: 594 x 964 km, 66.7° (Epoch: 26 September)

Event Time Altitude Azimuth Distance (km) Brightness Sun altitude
Rises 11:36:30 0° 323° (NW) 3,147 8.9 56.2°
Reaches altitude 10° 11:39:05 10° 335° (NNW) 2,286 8.3 56.2°
Maximum altitude 11:43:38 29° 35° (NE) 1,461 7.5 56.3°
Drops below altitude 10° 11:48:33 10° 94° (E) 2,496 8.8 56.3°
Sets 11:51:30 0° 106° (ESE) 3,490 9.5 56.3°
